Flag for Canada Weather past 2 weeks in Kelowna, British Columbia, Canada

Now
48 °F

Partly cloudy.


Feels Like: 48 °F
Forecast: 42 / 53 °F
Wind: 2 mph from North

Location: Kelowna Airport

Current Time: Oct 23, 2014 at 6:18:30 AM

Latest Report: Oct 23, 2014 at 5:00 AM


Visibility: 9 mi

Pressure: 29.67 "Hg

Humidity: 94%

Dew point: 46 °F

Location of KelownaLocation

Historic Weather in Kelowna — Graph

°F

Kelowna temperature yesterday

Maximum temperature yesterday: 57 °F (at 5:00 AM)
Minimum temperature yesterday: 48 °F (at 7:53 PM)
Average temperature yesterday: 53 °F

Past Weeks' High & Low Weather Summary

 TemperatureHumidityPressure
High68 °F (Oct 8, 3:00 PM)100% (Oct 9, 2:00 AM)30.17 "Hg (Oct 9, 2:00 AM)
Low37 °F (Oct 16, 6:00 AM)34% (Oct 14, 3:00 PM)29.56 "Hg (Oct 14, 2:00 AM)
Average52 °F79%29.88 "Hg
* Reported Oct 8 5:00 AM — Oct 23 5:00 AM, Kelowna, Weather by CustomWeather, © 2014

Note: Actual official high and low records may vary slightly from our data, if they occured in-between our weather recording intervals... More about our weather records

Advertising

Kelowna weather history for previous 24 hours

 ConditionsComfort  
Time TempWeatherWind HumidityBarometerVisibility
5:00 AM
Oct 23
48 °FPartly cloudy.2 mph94%29.67 "Hg9 mi
4:00 AM52 °FMostly cloudy.5 mph82%29.63 "Hg9 mi
3:00 AM48 °FOvercast.2 mph94%29.59 "Hg9 mi
2:00 AM48 °FOvercast.5 mph94%29.60 "Hg9 mi
1:00 AM50 °FLight rain. Mostly cloudy.No wind88%29.59 "Hg9 mi
12:00 AM48 °FMostly cloudy.2 mph100%29.58 "Hg9 mi
11:02 PM
Oct 22
48 °FMostly cloudy.3 mph100%29.57 "Hg9 mi
11:00 PM48 °FMostly cloudy.2 mph94%29.57 "Hg9 mi
10:00 PM48 °FLow clouds.No wind94%29.58 "Hg9 mi
9:58 PM48 °FLow clouds.No wind94%29.57 "Hg9 mi
9:00 PM48 °FLight rain. Overcast.5 mph100%29.60 "Hg9 mi
8:00 PM48 °FLight rain. Overcast.3 mph100%29.64 "Hg9 mi
7:53 PM48 °FLight rain. Overcast.6 mph100%29.64 "Hg9 mi
7:00 PM50 °FLight rain. Mostly cloudy.6 mph94%29.67 "Hg9 mi
6:00 PM50 °FLight rain. Mostly cloudy.No wind88%29.68 "Hg9 mi
5:00 PM50 °FLight rain. Mostly cloudy.No wind94%29.70 "Hg9 mi
4:00 PM52 °FLight rain. Overcast.3 mph77%29.73 "Hg9 mi
3:00 PM54 °FOvercast.5 mph72%29.74 "Hg9 mi
2:57 PM54 °FOvercast.5 mph72%29.74 "Hg9 mi
2:00 PM55 °FLight rain. Overcast.7 mph67%29.75 "Hg9 mi
1:48 PM55 °FLight rain. Overcast.5 mph67%29.76 "Hg9 mi
1:00 PM54 °FOvercast.6 mph72%29.76 "Hg9 mi
12:00 PM54 °FOvercast.3 mph67%29.77 "Hg9 mi
11:02 AM55 °FMostly cloudy.18 mph59%29.76 "Hg9 mi
10:00 AM55 °FOvercast.21 mph59%29.75 "Hg9 mi
9:00 AM55 °FOvercast.21 mph59%29.76 "Hg9 mi
8:00 AM55 °FOvercast.15 mph59%29.74 "Hg9 mi
7:00 AM55 °FOvercast.16 mph59%29.74 "Hg9 mi
6:00 AM57 °FMostly cloudy.15 mph51%29.73 "Hg9 mi
Weather by CustomWeather, © 2014

See weather overviewHow to use our weather pages